Regional Weather Roundup
Issued by NWS

Home | Current Version | Previous Version | Text Only | Print | Product List | Glossary Off
Versions: 1 2 3 4 5 6 7 8 9 10 11 12 13 14 15 16 17 18 19 20 21 22 23 24 25 26 27 28 29 30 31 32 33 34 35 36 37 38 39 40 41 42 43 44 45 46 47 48 49 50

000
ASUS45 KPSR 310510
RWRAZ

ARIZONA HOURLY REGIONAL WEATHER ROUNDUP
NATIONAL WEATHER SERVICE PHOENIX AZ
1000 PM MST MON MAY 30 2016

NOTE: FAIR INDICATES FEW OR NO CLOUDS BELOW 12,000 FEET WITH NO
SIGNIFICANT WEATHER AND/OR OBSTRUCTIONS TO VISIBILITY.

AZZ001>003-036-310600-
NORTHWEST ARIZONA

CITY           SKY/WX    TMP DP  RH WIND       PRES   REMARKS
KINGMAN        PTCLDY    71  25  17 CALM      29.93R
$$

AZZ004>008-015-016-018-310600-
NORTH CENTRAL ARIZONA

CITY           SKY/WX    TMP DP  RH WIND       PRES   REMARKS
GRAND CANYON   PTCLDY    47  27  45 E3        30.13R
WILLIAMS       PTCLDY    48  28  46 S6        30.20R
PRESCOTT       CLEAR     62  21  20 CALM      30.03R
FLAGSTAFF      PTCLDY    48  27  44 SW3       30.15R
PAYSON         CLEAR     61  12  15 N5        30.06R
PAGE           PTCLDY    73  32  22 W3        29.97R
$$

AZZ009>014-017-310600-
NORTHEAST ARIZONA

CITY           SKY/WX    TMP DP  RH WIND       PRES   REMARKS
WINSLOW        CLEAR     65  21  18 SW12      30.01R
SAINT JOHNS    CLEAR     60  19  20 W8        30.04R
WINDOW ROCK    PTCLDY    62  21  20 N7        30.10R
SHOW LOW       CLEAR     55  10  16 S8        30.11R
$$

AZZ023-310600-
GREATER PHOENIX AREA

CITY           SKY/WX    TMP DP  RH WIND       PRES   REMARKS
PHOENIX        CLEAR     84  24  11 CALM      29.77R
BUCKEYE        CLEAR     75  23  14 CALM      29.79R
LUKE AFB       CLEAR     80  29  15 W5        29.76S
DEER VALLEY    CLEAR     78  18  10 E5        29.80R
SCOTTSDALE     CLEAR     80  23  12 CALM      29.82R
$$

AZZ027-028-310600-
SOUTHWEST MARICOPA COUNTY AND PINAL COUNTY

CITY           SKY/WX    TMP DP  RH WIND       PRES   REMARKS
CASA GRANDE    CLEAR     79  21  11 NW6       29.82R
GILA BEND      FAIR      77  17  10 S8        29.76R
$$

AZZ503-504-507>509-310600-
SOUTHEAST ARIZONA

CITY           SKY/WX    TMP DP  RH WIND       PRES   REMARKS
TUCSON         CLEAR     77  16  10 W6        29.89R
DAVIS-MONTHAN  CLEAR     78  15   9 SW2       29.88R
NOGALES        CLEAR     64  23  21 E5        29.97R
SIERRA VISTA   CLEAR     71  22  16 SW13      30.02R
DOUGLAS        CLEAR     69  28  21 W10       29.98R
SAFFORD        CLEAR     75  20  12 N9        29.87R
$$

AZZ020-021-025-026-031-310600-
SOUTHWEST ARIZONA

CITY           SKY/WX    TMP DP  RH WIND       PRES   REMARKS
YUMA           CLEAR     83  45  26 SW7       29.75R
$$

CAZ031-033-041-043-047-048-061-310600-
SOUTHERN CALIFORNIA

CITY           SKY/WX    TMP DP  RH WIND       PRES   REMARKS
DOWNTOWN L.A.  MOCLDY    62  55  77 CALM      29.92R
L.A. AIRPORT   MOCLDY    61  55  81 W12       29.92S
SAN DIEGO      CLOUDY    65  56  72 NW7       29.95R
BURBANK        CLEAR     60  54  80 S7        29.91R
ONTARIO        PTCLDY    64  54  69 W7        29.91R
RIVERSIDE      CLEAR     65  54  67 W6        29.92R
PALM SPRINGS   CLEAR     86  51  29 NW10      29.78R
EL CENTRO NAS  CLEAR     82  41  23 S9        29.75R
IMPERIAL       CLEAR     85  40  20 SW10      29.73R
BLYTHE         PTCLDY    88  39  17 SW10      29.73R
NEEDLES        CLOUDY    93  26   9 W13       29.73S
$$

NVZ020-UTZ003-310600-
SOUTHERN NEVADA-UTAH

CITY           SKY/WX    TMP DP  RH WIND       PRES   REMARKS
LAS VEGAS      MOCLDY    89  30  12 S3        29.78R
SALT LAKE CITY PTCLDY    66  41  40 SE5       30.05R
$$

NMZ009-TXZ055-310600-
NEW MEXICO-WEST TEXAS

CITY           SKY/WX    TMP DP  RH WIND       PRES   REMARKS
ALBUQUERQUE    CLOUDY    71  32  23 SE5       30.01R
EL PASO        MOCLDY    70  56  61 N6        30.00R
$$


........................KEY........................
SKY/WX - SKY CONDITION/WEATHER
TMP    - TEMPERATURE IN FAHRENHEIT
DP     - DEW POINT IN FAHRENHEIT
RH     - RELATIVE HUMIDITY IN PERCENT
WIND   - DIRECTION AND SPEED IN MILES PER HOUR (MPH)
VRB    - VARIABLE WIND DIRECTION
PRES   - MEAN SEA LEVEL PRESSURE IN INCHES OF MERCURY
         F - FALLING PRESSURE   R - RISING PRESSURE
         S - STEADY PRESSURE
VSB    - VISIBILITY IN MILES
HX     - HEAT INDEX IN FAHRENHEIT
WCI    - WIND CHILL INDEX IN FAHRENHEIT
TC     - TEMPERATURE IN CELSIUS WHICH IS ALSO KNOWN AS
         TEMPERATURE IN CENTIGRADE
AFB    - AIR FORCE BASE
         LUKE AFB IS LUKE AIR FORCE BASE
         DAVIS-MONTHAN IS DAVIS-MONTHAN AIR FORCE BASE
NAS    - NAVAL AIR STATION
         EL CENTRO NAS IS EL CENTRO NAVAL AIR STATION
N/A    - NOT AVAILABLE




USA.gov is the U.S. government's official web portal to all federal, state and local government web resources and services.